datetime,ave relative humidity
2001-03-31,70.6
2001-04-01,62.59
2001-04-02,61.99
2001-04-03,66.11
2001-04-04,58.44
2001-04-05,50.11
2001-04-06,94.29
2001-04-07,84.48
2001-04-08,79.48
2001-04-09,70.16
2001-04-10,75.84
2001-04-11,69.89
2001-04-12,69.13
2001-04-13,75.38
2001-04-14,61.51
2001-04-15,52.09
2001-04-16,41.31
2001-04-17,56.87
2001-04-18,89.92
2001-04-19,81.69
2001-04-20,82.13
2001-04-21,72.26
2001-04-22,71.73
2001-04-23,71.25
2001-04-24,71.18
2001-04-25,64.08
2001-04-26,53.32
2001-04-27,57.79
2001-04-28,71.51
2001-04-29,67.35
2001-04-30,69.86
2001-05-01,59.12
2001-05-02,50.49
2001-05-03,46.94
2001-05-04,49.79
2001-05-05,41.72
2001-05-06,52.31
2001-05-07,53.24
2001-05-08,49.58
2001-05-09,50.62
2001-05-10,50.85
2001-05-11,46.95
2001-05-12,37.54
2001-05-13,42.1
2001-05-14,69.28
2001-05-15,84.77
2001-05-16,62.66
2001-05-17,65.0
2001-05-18,60.56
2001-05-19,53.18
2001-05-20,50.28
2001-05-21,42.92
2001-05-22,48.04
2001-05-23,48.52
2001-05-24,52.18
2001-05-25,60.09
2001-05-26,53.73
2001-05-27,51.02
2001-05-28,57.52
2001-05-29,54.56
2001-05-30,53.95
2001-05-31,37.77
2001-06-01,53.99
2001-06-02,59.44
2001-06-03,57.96
2001-06-04,53.18
2001-06-05,72.54
2001-06-06,63.35
2001-06-07,57.7
2001-06-08,56.34
2001-06-09,56.19
2001-06-10,60.09
2001-06-11,66.97
2001-06-12,48.96
2001-06-13,54.55
2001-06-14,53.45
2001-06-15,52.06
2001-06-16,49.83
2001-06-17,48.79
2001-06-18,44.42
2001-06-19,40.17
2001-06-20,43.62
2001-06-21,52.49
2001-06-22,47.8
2001-06-23,47.75
2001-06-24,64.95
2001-06-25,73.59
2001-06-26,77.85
2001-06-27,73.72
2001-06-28,60.72
2001-06-29,58.11
2001-06-30,56.73
2001-07-01,56.34
2001-07-02,51.02
2001-07-03,56.95
2001-07-04,49.89
2001-07-05,42.75
2001-07-06,53.51
2001-07-07,44.27
2001-07-08,44.99
2001-07-09,46.96
2001-07-10,57.3
2001-07-11,74.74
2001-07-12,63.04
2001-07-13,54.71
2001-07-14,56.13
2001-07-15,58.95
2001-07-16,53.25
2001-07-17,56.44
2001-07-18,62.27
2001-07-19,58.82
2001-07-20,55.34
2001-07-21,58.98
2001-07-22,55.36
2001-07-23,50.86
2001-07-24,50.28
2001-07-25,42.85
2001-07-26,44.55
2001-07-27,47.57
2001-07-28,51.52
2001-07-29,62.42
2001-07-30,71.8
2001-07-31,63.58
2001-08-01,55.74
2001-08-02,43.58
2001-08-03,37.68
2001-08-04,46.86
2001-08-05,48.1
2001-08-06,47.33
2001-08-07,53.57
2001-08-08,49.53
2001-08-09,54.18
2001-08-10,44.25
2001-08-11,47.93
2001-08-12,46.56
2001-08-13,38.22
2001-08-14,45.09
2001-08-15,53.63
2001-08-16,50.07
2001-08-17,50.97
2001-08-18,54.72
2001-08-19,56.25
2001-08-20,51.07
2001-08-21,58.93
2001-08-22,59.99
2001-08-23,61.62
2001-08-24,62.99
2001-08-25,55.28
2001-08-26,51.47
2001-08-27,51.42
2001-08-28,55.12
2001-08-29,54.32
2001-08-30,53.92
2001-08-31,56.83
2001-09-01,61.33
2001-09-02,52.17
2001-09-03,55.36
2001-09-04,53.09
2001-09-05,61.09
2001-09-06,55.92
2001-09-07,49.05
2001-09-08,39.24
2001-09-09,42.74
2001-09-10,44.3
2001-09-11,58.92
2001-09-12,60.06
2001-09-13,89.21
2001-09-14,73.15
2001-09-15,80.92
2001-09-16,76.52
2001-09-17,66.86
2001-09-18,59.09
2001-09-19,59.85
2001-09-20,54.73
2001-09-21,54.5
2001-09-22,49.73
2001-09-23,49.86
2001-09-24,48.57
2001-09-25,80.01
2001-09-26,75.24
2001-09-27,76.83
2001-09-28,75.29
2001-09-29,66.1
2001-09-30,53.07
2001-10-01,58.15
2001-10-02,60.52
2001-10-03,62.29
2001-10-04,59.8
2001-10-05,62.19
2001-10-06,63.48
2001-10-07,58.69
2001-10-08,55.65
2001-10-09,65.19
2001-10-10,62.22
2001-10-11,67.29
2001-10-12,69.25
2001-10-13,69.78
2001-10-14,67.27
2001-10-15,66.57
2001-10-16,62.57
2001-10-17,61.65
2001-10-18,59.34
2001-10-19,56.79
2001-10-20,57.24
2001-10-21,60.96
2001-10-22,66.41
2001-10-23,65.17
2001-10-24,67.85
2001-10-25,63.3
2001-10-26,54.22
2001-10-27,48.0
2001-10-28,71.75
2001-10-29,78.97
2001-10-30,82.86
2001-10-31,71.43
2001-11-01,78.8
2001-11-02,84.02
2001-11-03,75.67
2001-11-04,71.01
2001-11-05,76.02
2001-11-06,80.01
2001-11-07,67.35
2001-11-08,64.66
2001-11-09,67.36
2001-11-10,67.75
2001-11-11,67.78
2001-11-12,85.96
2001-11-13,88.07
2001-11-14,83.36
2001-11-15,79.1
2001-11-16,80.47
2001-11-17,87.67
2001-11-18,78.03
2001-11-19,71.43
2001-11-20,86.28
2001-11-21,86.23
2001-11-22,65.28
2001-11-23,76.91
2001-11-24,90.48
2001-11-25,81.69
2001-11-26,92.56
2001-11-27,86.89
2001-11-28,83.23
2001-11-29,80.54
2001-11-30,83.97
2001-12-01,80.52
2001-12-02,86.35
2001-12-03,85.85
2001-12-04,81.21
2001-12-05,87.33
2001-12-06,76.5
2001-12-07,89.42
2001-12-08,82.91
2001-12-09,84.46
2001-12-10,84.74
2001-12-11,90.78
2001-12-12,95.56
2001-12-13,84.56
2001-12-14,81.77
2001-12-15,81.11
2001-12-16,82.31
2001-12-17,82.58
2001-12-18,82.33
2001-12-19,88.16
2001-12-20,86.62
2001-12-21,92.79
2001-12-22,87.26
2001-12-23,89.56
2001-12-24,79.83
2001-12-25,80.33
2001-12-26,85.34
2001-12-27,80.55
2001-12-28,85.38
2001-12-29,93.5
2001-12-30,91.68
2001-12-31,90.15
2002-01-01,88.03
2002-01-02,88.24
2002-01-03,90.41
2002-01-04,82.74
2002-01-05,78.18
2002-01-06,86.03
2002-01-07,63.28
2002-01-08,87.69
2002-01-09,90.43
2002-01-10,86.76
2002-01-11,78.77
2002-01-12,71.34
2002-01-13,85.84
2002-01-14,79.83
2002-01-15,70.62
2002-01-16,71.47
2002-01-17,79.27
2002-01-18,80.91
2002-01-19,77.79
2002-01-20,73.31
2002-01-21,81.57
2002-01-22,78.74
2002-01-23,84.67
2002-01-24,82.31
2002-01-25,68.89
2002-01-26,69.22
2002-01-27,74.93
2002-01-28,76.25
2002-01-29,71.21
2002-01-30,73.9
2002-01-31,77.11
2002-02-01,82.06
2002-02-02,77.71
2002-02-03,72.81
2002-02-04,78.67
2002-02-05,77.9
2002-02-06,60.91
2002-02-07,79.49
2002-02-08,80.0
2002-02-09,80.0
2002-02-10,72.0
2002-02-11,79.39
2002-02-12,65.37
2002-02-13,72.03
2002-02-14,67.29
2002-02-15,70.23
2002-02-16,81.11
2002-02-17,93.08
2002-02-18,87.61
2002-02-19,88.2
2002-02-20,90.21
2002-02-21,78.17
2002-02-22,71.05
2002-02-23,79.66
2002-02-24,71.96
2002-02-25,68.6
2002-02-26,73.75
2002-02-27,62.2
2002-02-28,60.24
2002-03-01,57.26
2002-03-02,57.82
2002-03-03,66.76
2002-03-04,64.92
2002-03-05,76.2
2002-03-06,80.43
2002-03-07,81.89
2002-03-08,70.19
2002-03-09,68.17
2002-03-10,84.43
2002-03-11,79.35
2002-03-12,71.87
2002-03-13,72.92
2002-03-14,69.66
2002-03-15,74.93
2002-03-16,70.17
2002-03-17,72.67
2002-03-18,66.09
2002-03-19,59.18
2002-03-20,58.26
2002-03-21,54.22
2002-03-22,65.88
2002-03-23,78.53
2002-03-24,75.0
2002-03-25,68.48
2002-03-26,62.57
2002-03-27,60.08
2002-03-28,63.38
2002-03-29,57.45
2002-03-30,55.06
2002-03-31,53.17
2002-04-01,53.99
2002-04-02,55.98
2002-04-03,58.8
2002-04-04,54.22
2002-04-05,59.36
2002-04-06,69.85
2002-04-07,67.82
2002-04-08,62.78
2002-04-09,70.03
2002-04-10,67.01
2002-04-11,72.08
2002-04-12,66.23
2002-04-13,72.57
2002-04-14,64.81
2002-04-15,63.8
2002-04-16,89.16
2002-04-17,79.94
2002-04-18,65.63
2002-04-19,57.64
2002-04-20,60.76
2002-04-21,62.56
2002-04-22,61.26
2002-04-23,50.37
2002-04-24,44.15
2002-04-25,50.73
2002-04-26,54.83
2002-04-27,65.93
2002-04-28,64.95
2002-04-29,82.87
2002-04-30,94.28
2002-05-01,80.44
2002-05-02,69.89
2002-05-03,56.0
2002-05-04,52.14
2002-05-05,50.84
2002-05-06,60.66
2002-05-07,47.95
2002-05-08,47.51
2002-05-09,54.27
2002-05-10,58.77
2002-05-11,54.04
2002-05-12,47.57
2002-05-13,49.53
2002-05-14,55.84
2002-05-15,53.87
2002-05-16,54.32
2002-05-17,59.33
2002-05-18,49.33
2002-05-19,62.39
2002-05-20,60.85
2002-05-21,68.67
2002-05-22,62.44
2002-05-23,54.51
2002-05-24,55.55
2002-05-25,60.19
2002-05-26,59.08
2002-05-27,67.02
2002-05-28,67.08
2002-05-29,62.78
2002-05-30,58.44
2002-05-31,55.98
2002-06-01,66.79
2002-06-02,58.28
2002-06-03,54.18
2002-06-04,60.83
2002-06-05,60.52
2002-06-06,53.9
2002-06-07,52.96
2002-06-08,54.5
2002-06-09,64.65
2002-06-10,58.35
2002-06-11,54.67
2002-06-12,50.4
2002-06-13,43.74
2002-06-14,51.22
2002-06-15,50.42
2002-06-16,54.94
2002-06-17,69.6
2002-06-18,59.83
2002-06-19,53.44
2002-06-20,51.04
2002-06-21,55.39
2002-06-22,65.36
2002-06-23,62.1
2002-06-24,58.05
2002-06-25,52.53
2002-06-26,53.62
2002-06-27,58.16
2002-06-28,59.8
2002-06-29,51.08
2002-06-30,55.16
2002-07-01,54.61
2002-07-02,51.87
2002-07-03,52.22
2002-07-04,51.89
2002-07-05,51.04
2002-07-06,54.96
2002-07-07,54.2
2002-07-08,53.79
2002-07-09,49.36
2002-07-10,50.27
2002-07-11,47.04
2002-07-12,48.21
2002-07-13,48.94
2002-07-14,53.85
2002-07-15,46.55
2002-07-16,36.72
2002-07-17,40.01
2002-07-18,55.92
2002-07-19,52.86
2002-07-20,51.44
2002-07-21,44.6
2002-07-22,49.75
2002-07-23,52.8
2002-07-24,43.07
2002-07-25,52.79
2002-07-26,56.08
2002-07-27,49.16
2002-07-28,45.63
2002-07-29,52.27
2002-07-30,56.74
2002-07-31,58.24
2002-08-01,49.49
2002-08-02,52.97
2002-08-03,55.69
2002-08-04,72.26
2002-08-05,66.04
2002-08-06,58.23
2002-08-07,53.32
2002-08-08,51.67
2002-08-09,45.18
2002-08-10,51.94
2002-08-11,55.69
2002-08-12,52.07
2002-08-13,46.96
2002-08-14,50.84
2002-08-15,51.51
2002-08-16,51.65
2002-08-17,51.67
2002-08-18,49.71
2002-08-19,54.76
2002-08-20,65.04
2002-08-21,62.97
2002-08-22,58.58
2002-08-23,59.33
2002-08-24,60.83
2002-08-25,60.54
2002-08-26,60.28
2002-08-27,58.28
2002-08-28,56.65
2002-08-29,55.36
2002-08-30,61.12
2002-08-31,56.34
2002-09-01,55.43
2002-09-02,55.95
2002-09-03,49.5
2002-09-04,53.32
2002-09-05,57.02
2002-09-06,61.13
2002-09-07,63.95
2002-09-08,62.95
2002-09-09,53.49
2002-09-10,54.56
2002-09-11,52.35
2002-09-12,51.88
2002-09-13,38.8
2002-09-14,37.41
2002-09-15,37.89
2002-09-16,61.39
2002-09-17,74.54
2002-09-18,67.54
2002-09-19,57.86
2002-09-20,59.22
2002-09-21,53.77
2002-09-22,57.37
2002-09-23,55.35
2002-09-24,53.35
2002-09-25,45.18
2002-09-26,48.93
2002-09-27,51.98
2002-09-28,59.94
2002-09-29,69.64
2002-09-30,71.88
2002-10-01,61.88
2002-10-02,49.56
2002-10-03,79.01
2002-10-04,77.58
2002-10-05,69.26
2002-10-06,63.93
2002-10-07,58.58
2002-10-08,52.5
2002-10-09,56.57
2002-10-10,59.39
2002-10-11,57.81
2002-10-12,46.65
2002-10-13,51.22
2002-10-14,51.71
2002-10-15,46.02
2002-10-16,50.55
2002-10-17,57.28
2002-10-18,57.37
2002-10-19,61.77
2002-10-20,66.03
2002-10-21,71.47
2002-10-22,67.99
2002-10-23,65.39
2002-10-24,64.05
2002-10-25,61.29
2002-10-26,62.26
2002-10-27,70.48
2002-10-28,68.42
2002-10-29,68.02
2002-10-30,59.75
2002-10-31,44.38
2002-11-01,44.07
2002-11-02,48.11
2002-11-03,50.12
2002-11-04,48.31
2002-11-05,47.92
2002-11-06,36.53
2002-11-07,71.25
2002-11-08,75.29
2002-11-09,78.46
2002-11-10,79.86
2002-11-11,79.84
2002-11-12,76.2
2002-11-13,95.12
2002-11-14,87.81
2002-11-15,73.67
2002-11-16,53.27
2002-11-17,80.9
2002-11-18,82.39
2002-11-19,76.78
2002-11-20,73.89
2002-11-21,77.84
2002-11-22,87.79
2002-11-23,79.06
2002-11-24,88.08
2002-11-25,69.01
2002-11-26,70.35
2002-11-27,70.87
2002-11-28,70.96
2002-11-29,78.54
2002-11-30,80.63
2002-12-01,83.98
2002-12-02,83.97
2002-12-03,82.2
2002-12-04,86.49
2002-12-05,89.17
2002-12-06,84.06
2002-12-07,81.86
2002-12-08,79.02
2002-12-09,66.48
2002-12-10,82.23
2002-12-11,90.01
2002-12-12,76.55
2002-12-13,83.25
2002-12-14,78.62
2002-12-15,81.14
2002-12-16,89.59
2002-12-17,89.38
2002-12-18,83.02
2002-12-19,73.15
2002-12-20,79.36
2002-12-21,78.12
2002-12-22,81.49
2002-12-23,76.91
2002-12-24,85.5
2002-12-25,82.92
2002-12-26,79.65
2002-12-27,78.83
2002-12-28,88.68
2002-12-29,86.83
2002-12-30,79.29
2002-12-31,83.56
2003-01-01,83.91
2003-01-02,60.04
2003-01-03,67.87
2003-01-04,67.58
2003-01-05,88.21
2003-01-06,78.65
2003-01-07,72.78
2003-01-08,83.81
2003-01-09,91.82
2003-01-10,89.38
2003-01-11,85.74
2003-01-12,84.29
2003-01-13,89.89
2003-01-14,93.37
2003-01-15,89.82
2003-01-16,96.15
2003-01-17,91.56
2003-01-18,86.85
2003-01-19,88.35
2003-01-20,81.75
2003-01-21,74.65
2003-01-22,79.61
2003-01-23,83.74
2003-01-24,87.98
2003-01-25,89.38
2003-01-26,80.82
2003-01-27,89.34
2003-01-28,90.94
2003-01-29,87.09
2003-01-30,85.76
2003-01-31,76.2
2003-02-01,77.7
2003-02-02,76.43
2003-02-03,79.85
2003-02-04,67.92
2003-02-05,69.18
2003-02-06,59.59
2003-02-07,63.25
2003-02-08,67.62
2003-02-09,72.1
2003-02-10,68.82
2003-02-11,73.19
2003-02-12,68.75
2003-02-13,89.59
2003-02-14,85.12
2003-02-15,75.9
2003-02-16,77.31
2003-02-17,71.32
2003-02-18,75.17
2003-02-19,81.64
2003-02-20,79.13
2003-02-21,73.85
2003-02-22,58.8
2003-02-23,64.86
2003-02-24,66.29
2003-02-25,54.02
2003-02-26,65.78
2003-02-27,78.28
2003-02-28,87.9
2003-03-01,76.58
2003-03-02,62.97
2003-03-03,67.69
2003-03-04,72.77
2003-03-05,61.81
2003-03-06,53.79
2003-03-07,63.88
2003-03-08,58.77
2003-03-09,70.43
2003-03-10,67.88
2003-03-11,76.89
2003-03-12,67.4
2003-03-13,45.06
2003-03-14,75.6
2003-03-15,87.25
2003-03-16,88.97
2003-03-17,72.04
2003-03-18,68.86
2003-03-19,65.54
2003-03-20,67.88
2003-03-21,75.92
2003-03-22,77.32
2003-03-23,69.19
2003-03-24,57.68
2003-03-25,78.25
2003-03-26,76.57
2003-03-27,67.7
2003-03-28,65.87
2003-03-29,69.17
2003-03-30,60.64
2003-03-31,61.34
2003-04-01,71.66
2003-04-02,77.12
2003-04-03,78.12
2003-04-04,76.39
2003-04-05,75.33
2003-04-06,81.78
2003-04-07,70.59
2003-04-08,58.01
2003-04-09,53.29
2003-04-10,59.24
2003-04-11,53.12
2003-04-12,73.65
2003-04-13,71.18
2003-04-14,74.45
2003-04-15,73.6
2003-04-16,78.46
2003-04-17,74.53
2003-04-18,62.95
2003-04-19,57.1
2003-04-20,55.97
2003-04-21,82.82
2003-04-22,77.64
2003-04-23,78.4
2003-04-24,86.16
2003-04-25,82.67
2003-04-26,74.26
2003-04-27,69.16
2003-04-28,74.62
2003-04-29,78.12
2003-04-30,72.59
2003-05-01,62.57
2003-05-02,71.38
2003-05-03,79.02
2003-05-04,76.83
2003-05-05,66.0
2003-05-06,69.48
2003-05-07,62.55
2003-05-08,85.17
2003-05-09,77.62
2003-05-10,81.49
2003-05-11,82.36
2003-05-12,76.22
2003-05-13,63.34
2003-05-14,63.02
2003-05-15,62.3
2003-05-16,57.33
2003-05-17,51.79
2003-05-18,45.82
2003-05-19,45.37
2003-05-20,57.26
2003-05-21,57.43
2003-05-22,56.21
2003-05-23,53.97
2003-05-24,60.54
2003-05-25,61.44
2003-05-26,53.79
2003-05-27,52.23
2003-05-28,48.03
2003-05-29,53.48
2003-05-30,55.35
2003-05-31,56.31
2003-06-01,49.27
2003-06-02,51.8
2003-06-03,42.53
2003-06-04,36.14
2003-06-05,39.4
2003-06-06,47.02
2003-06-07,45.41
2003-06-08,50.08
2003-06-09,43.32
2003-06-10,46.15
2003-06-11,47.83
2003-06-12,52.69
2003-06-13,53.74
2003-06-14,54.12
2003-06-15,57.19
2003-06-16,48.62
2003-06-17,47.4
2003-06-18,61.6
2003-06-19,59.05
2003-06-20,55.86
2003-06-21,57.16
2003-06-22,51.83
2003-06-23,60.24
2003-06-24,54.95
2003-06-25,46.66
2003-06-26,48.51
2003-06-27,46.19
2003-06-28,44.2
2003-06-29,35.91
2003-06-30,36.01
2003-07-01,48.08
2003-07-02,47.34
2003-07-03,46.93
2003-07-04,49.61
2003-07-05,48.91
2003-07-06,50.89
2003-07-07,56.66
2003-07-08,58.49
2003-07-09,50.77
2003-07-10,47.6
2003-07-11,51.63
2003-07-12,51.34
2003-07-13,53.43
2003-07-14,52.18
2003-07-15,52.33
2003-07-16,54.73
2003-07-17,48.26
2003-07-18,48.77
2003-07-19,51.58
2003-07-20,46.04
2003-07-21,47.98
2003-07-22,49.82
2003-07-23,55.36
2003-07-24,75.87
2003-07-25,67.17
2003-07-26,49.82
2003-07-27,51.01
2003-07-28,46.99
2003-07-29,45.0
2003-07-30,44.89
2003-07-31,45.6
2003-08-01,51.32
2003-08-02,70.94
2003-08-03,77.26
2003-08-04,66.98
2003-08-05,49.51
2003-08-06,51.89
2003-08-07,49.97
2003-08-08,48.31
2003-08-09,41.98
2003-08-10,38.59
2003-08-11,57.26
2003-08-12,53.42
2003-08-13,51.77
2003-08-14,49.81
2003-08-15,37.63
2003-08-16,49.84
2003-08-17,50.34
2003-08-18,53.08
2003-08-19,52.66
2003-08-20,53.33
2003-08-21,76.79
2003-08-22,80.03
2003-08-23,67.0
2003-08-24,60.9
2003-08-25,50.44
2003-08-26,60.26
2003-08-27,54.71
2003-08-28,48.57
2003-08-29,52.36
2003-08-30,46.09
2003-08-31,48.1
2003-09-01,45.53
2003-09-02,48.94
2003-09-03,48.52
2003-09-04,57.74
2003-09-05,59.32
2003-09-06,48.14
2003-09-07,55.53
2003-09-08,62.77
2003-09-09,81.67
2003-09-10,73.53
2003-09-11,71.37
2003-09-12,53.37
2003-09-13,42.04
2003-09-14,49.83
2003-09-15,55.43
2003-09-16,59.85
2003-09-17,63.5
2003-09-18,58.54
2003-09-19,62.9
2003-09-20,60.19
2003-09-21,51.37
2003-09-22,54.59
2003-09-23,59.24
2003-09-24,56.49
2003-09-25,52.99
2003-09-26,54.35
2003-09-27,59.85
2003-09-28,59.36
2003-09-29,55.52
2003-09-30,58.66
2003-10-01,59.25
2003-10-02,67.82
2003-10-03,64.06
2003-10-04,65.28
2003-10-05,66.35
2003-10-06,61.3
2003-10-07,61.1
2003-10-08,61.89
2003-10-09,64.58
2003-10-10,64.71
2003-10-11,66.7
2003-10-12,67.71
2003-10-13,64.4
2003-10-14,55.4
2003-10-15,66.19
2003-10-16,61.78
2003-10-17,53.07
2003-10-18,38.81
2003-10-19,35.78
2003-10-20,51.35
2003-10-21,52.74
2003-10-22,36.21
2003-10-23,65.22
2003-10-24,55.88
2003-10-25,45.63
2003-10-26,57.81
2003-10-27,57.56
2003-10-28,59.78
2003-10-29,64.47
2003-10-30,70.79
2003-10-31,60.54
2003-11-01,61.94
2003-11-02,82.01
2003-11-03,85.62
2003-11-04,80.84
2003-11-05,87.85
2003-11-06,78.65
2003-11-07,82.49
2003-11-08,70.04
2003-11-09,83.42
2003-11-10,86.7
2003-11-11,81.01
2003-11-12,73.77
2003-11-13,77.51
2003-11-14,79.54
2003-11-15,88.14
2003-11-16,84.38
2003-11-17,73.89
2003-11-18,68.29
2003-11-19,61.6
2003-11-20,70.06
2003-11-21,74.08
2003-11-22,62.73
2003-11-23,70.48
2003-11-24,72.59
2003-11-25,82.25
2003-11-26,72.71
2003-11-27,65.53
2003-11-28,49.56
2003-11-29,86.11
2003-11-30,85.53
2003-12-01,82.52
2003-12-02,82.65
2003-12-03,83.09
2003-12-04,82.87
2003-12-05,78.36
2003-12-06,78.08
2003-12-07,80.56
2003-12-08,79.69
2003-12-09,75.29
2003-12-10,87.33
2003-12-11,86.3
2003-12-12,91.04
2003-12-13,77.68
2003-12-14,86.82
2003-12-15,89.26
2003-12-16,75.52
2003-12-17,85.07
2003-12-18,88.25
2003-12-19,64.04
2003-12-20,90.29
2003-12-21,90.77
2003-12-22,82.19
2003-12-23,73.84
2003-12-24,84.33
2003-12-25,85.72
2003-12-26,77.15
2003-12-27,78.62
2003-12-28,79.0
2003-12-29,83.44
2003-12-30,90.5
2003-12-31,92.18
2004-01-01,80.01
2004-01-02,86.19
2004-01-03,79.49
2004-01-04,77.3
2004-01-05,83.01
2004-01-06,80.24
2004-01-07,79.57
2004-01-08,81.81
2004-01-09,69.93
2004-01-10,91.63
2004-01-11,92.8
2004-01-12,80.01
2004-01-13,67.97
2004-01-14,75.45
2004-01-15,94.09
2004-01-16,90.1
2004-01-17,96.62
2004-01-18,93.74
2004-01-19,95.52
2004-01-20,79.1
2004-01-21,79.13
2004-01-22,79.8
2004-01-23,82.73
2004-01-24,80.03
2004-01-25,73.07
2004-01-26,84.93
2004-01-27,86.69
2004-01-28,88.82
2004-01-29,81.17
2004-01-30,77.85
2004-01-31,75.15
2004-02-01,71.07
2004-02-02,91.83
2004-02-03,83.91
2004-02-04,81.42
2004-02-05,75.35
2004-02-06,70.61
2004-02-07,79.68
2004-02-08,75.12
2004-02-09,71.93
2004-02-10,75.78
2004-02-11,69.32
2004-02-12,58.35
2004-02-13,58.94
2004-02-14,75.7
2004-02-15,82.9
2004-02-16,88.02
2004-02-17,87.06
2004-02-18,79.96
2004-02-19,72.55
2004-02-20,66.94
2004-02-21,79.86
2004-02-22,83.03
2004-02-23,81.47
2004-02-24,66.08
2004-02-25,78.53
2004-02-26,78.04
2004-02-27,81.31
2004-02-28,72.45
2004-02-29,82.87
2004-03-01,84.98
2004-03-02,71.95
2004-03-03,84.39
2004-03-04,80.21
2004-03-05,79.41
2004-03-06,64.18
2004-03-07,69.65
2004-03-08,67.12
2004-03-09,70.71
2004-03-10,62.18
2004-03-11,63.9
2004-03-12,63.63
2004-03-13,61.19
2004-03-14,58.38
2004-03-15,60.28
2004-03-16,60.22
2004-03-17,61.49
2004-03-18,54.32
2004-03-19,54.35
2004-03-20,55.56
2004-03-21,53.57
2004-03-22,59.22
2004-03-23,63.26
2004-03-24,60.34
2004-03-25,69.19
2004-03-26,73.24
2004-03-27,65.47
2004-03-28,60.13
2004-03-29,40.77
2004-03-30,68.81
2004-03-31,70.4
2004-04-01,55.68
2004-04-02,57.6
2004-04-03,61.7
2004-04-04,58.66
2004-04-05,58.58
2004-04-06,66.31
2004-04-07,56.29
2004-04-08,56.89
2004-04-09,47.56
2004-04-10,47.43
2004-04-11,44.89
2004-04-12,43.44
2004-04-13,55.7
2004-04-14,67.73
2004-04-15,71.89
2004-04-16,78.32
2004-04-17,72.24
2004-04-18,77.39
2004-04-19,71.33
2004-04-20,72.68
2004-04-21,77.64
2004-04-22,63.31
2004-04-23,66.81
2004-04-24,61.77
2004-04-25,56.29
2004-04-26,53.52
2004-04-27,52.45
2004-04-28,39.48
2004-04-29,50.93
2004-04-30,51.49
2004-05-01,54.37
2004-05-02,53.65
2004-05-03,55.96
2004-05-04,56.11
2004-05-05,52.91
2004-05-06,47.87
2004-05-07,54.76
2004-05-08,62.82
2004-05-09,67.1
2004-05-10,76.13
2004-05-11,72.61
2004-05-12,63.42
2004-05-13,56.91
2004-05-14,55.65
2004-05-15,64.79
2004-05-16,58.99
2004-05-17,72.55
2004-05-18,78.6
2004-05-19,69.07
2004-05-20,71.16
2004-05-21,63.62
2004-05-22,62.06
2004-05-23,56.19
2004-05-24,57.51
2004-05-25,51.92
2004-05-26,64.69
2004-05-27,76.63
2004-05-28,68.92
2004-05-29,62.1
2004-05-30,59.4
2004-05-31,53.66
2004-06-01,55.12
2004-06-02,56.15
2004-06-03,56.34
2004-06-04,51.7
2004-06-05,56.09
2004-06-06,57.34
2004-06-07,66.4
2004-06-08,67.18
2004-06-09,81.03
2004-06-10,63.58
2004-06-11,61.88
2004-06-12,60.43
2004-06-13,49.85
2004-06-14,54.09
2004-06-15,47.24
2004-06-16,31.9
2004-06-17,40.68
2004-06-18,46.26
2004-06-19,47.85
2004-06-20,44.82
2004-06-21,46.51
2004-06-22,47.35
2004-06-23,44.79
2004-06-24,40.44
2004-06-25,48.23
2004-06-26,55.55
2004-06-27,52.58
2004-06-28,53.16
2004-06-29,62.08
2004-06-30,60.74
2004-07-01,59.94
2004-07-02,53.58
2004-07-03,57.8
2004-07-04,54.84
2004-07-05,49.14
2004-07-06,48.34
2004-07-07,53.19
2004-07-08,47.74
2004-07-09,46.26
2004-07-10,53.17
2004-07-11,46.98
2004-07-12,35.84
2004-07-13,31.14
2004-07-14,28.21
2004-07-15,32.16
2004-07-16,36.84
2004-07-17,36.28
2004-07-18,40.32
2004-07-19,51.31
2004-07-20,55.17
2004-07-21,48.35
2004-07-22,43.67
2004-07-23,40.94
2004-07-24,46.85
2004-07-25,41.95
2004-07-26,47.39
2004-07-27,49.01
2004-07-28,47.81
2004-07-29,47.14
2004-07-30,50.86
2004-07-31,42.42
2004-08-01,33.59
2004-08-02,44.46
2004-08-03,56.63
2004-08-04,52.1
2004-08-05,56.16
2004-08-06,50.01
2004-08-07,54.01
2004-08-08,41.87
2004-08-09,43.0
2004-08-10,48.31
2004-08-11,50.88
2004-08-12,47.2
2004-08-13,42.67
2004-08-14,37.6
2004-08-15,50.13
2004-08-16,52.9
2004-08-17,56.85
2004-08-18,54.64
2004-08-19,51.31
2004-08-20,49.19
2004-08-21,54.22
2004-08-22,70.44
2004-08-23,73.72
2004-08-24,64.86
2004-08-25,62.52
2004-08-26,65.95
2004-08-27,60.07
2004-08-28,53.92
2004-08-29,51.91
2004-08-30,42.34
2004-08-31,32.62
2004-09-01,42.69
2004-09-02,58.01
2004-09-03,58.09
2004-09-04,55.93
2004-09-05,57.48
2004-09-06,52.54
2004-09-07,52.98
2004-09-08,55.66
2004-09-09,55.4
2004-09-10,53.22
2004-09-11,63.05
2004-09-12,60.95
2004-09-13,72.96
2004-09-14,63.08
2004-09-15,66.98
2004-09-16,62.22
2004-09-17,65.17
2004-09-18,60.24
2004-09-19,71.21
2004-09-20,67.54
2004-09-21,64.49
2004-09-22,59.94
2004-09-23,61.17
2004-09-24,58.01
2004-09-25,49.37
2004-09-26,56.4
2004-09-27,55.06
2004-09-28,50.27
2004-09-29,56.33
2004-09-30,64.51
2004-10-01,61.35
2004-10-02,56.68
2004-10-03,52.98
2004-10-04,49.52
2004-10-05,58.77
2004-10-06,62.48
2004-10-07,65.07
2004-10-08,55.69
2004-10-09,74.42
2004-10-10,66.43
2004-10-11,61.75
2004-10-12,58.42
2004-10-13,56.15
2004-10-14,61.29
2004-10-15,60.87
2004-10-16,59.13
2004-10-17,79.11
2004-10-18,76.9
2004-10-19,82.53
2004-10-20,82.73
2004-10-21,86.37
2004-10-22,89.26
2004-10-23,84.94
2004-10-24,79.19
2004-10-25,75.56
2004-10-26,86.23
2004-10-27,92.07
2004-10-28,87.46
2004-10-29,79.92
2004-10-30,80.96
2004-10-31,76.64
2004-11-01,71.72
2004-11-02,67.73
2004-11-03,75.87
2004-11-04,62.41
2004-11-05,77.36
2004-11-06,75.26
2004-11-07,76.1
2004-11-08,75.06
2004-11-09,82.22
2004-11-10,84.0
2004-11-11,85.13
2004-11-12,81.7
2004-11-13,76.16
2004-11-14,79.21
2004-11-15,69.53
2004-11-16,83.5
2004-11-17,91.77
2004-11-18,83.88
2004-11-19,70.18
2004-11-20,70.42
2004-11-21,66.01
2004-11-22,73.1
2004-11-23,80.4
2004-11-24,85.34
2004-11-25,92.09
2004-11-26,94.96
2004-11-27,82.23
2004-11-28,78.58
2004-11-29,82.2
2004-11-30,81.46
2004-12-01,87.15
2004-12-02,82.3
2004-12-03,78.78
2004-12-04,70.53
2004-12-05,72.35
2004-12-06,77.04
2004-12-07,76.3
2004-12-08,80.61
2004-12-09,80.86
2004-12-10,81.64
2004-12-11,84.92
2004-12-12,89.58
2004-12-13,80.02
2004-12-14,81.28
2004-12-15,88.68
2004-12-16,82.27
2004-12-17,82.98
2004-12-18,81.4
2004-12-19,80.68
2004-12-20,80.81
2004-12-21,73.64
2004-12-22,82.28
2004-12-23,76.35
2004-12-24,79.13
2004-12-25,63.24
2004-12-26,71.74
2004-12-27,56.22
2004-12-28,77.1
2004-12-29,84.79
2004-12-30,78.98
2004-12-31,82.11
2005-01-01,81.8
2005-01-02,93.44
2005-01-03,84.62
2005-01-04,85.61
2005-01-05,84.92
2005-01-06,79.73
2005-01-07,83.19
2005-01-08,77.72
2005-01-09,76.3
2005-01-10,78.84
2005-01-11,87.58
2005-01-12,79.49
2005-01-13,80.45
2005-01-14,80.98
2005-01-15,85.75
2005-01-16,78.99
2005-01-17,90.25
2005-01-18,86.38
2005-01-19,86.29
2005-01-20,88.91
2005-01-21,85.58
2005-01-22,82.89
2005-01-23,84.0
2005-01-24,81.94
2005-01-25,84.56
2005-01-26,87.25
2005-01-27,85.42
2005-01-28,80.08
2005-01-29,80.46
2005-01-30,83.49
2005-01-31,86.48
2005-02-01,79.14
2005-02-02,75.55
2005-02-03,77.66
2005-02-04,82.04
2005-02-05,76.62
2005-02-06,84.69
2005-02-07,75.68
2005-02-08,77.95
2005-02-09,78.86
2005-02-10,69.86
2005-02-11,71.15
2005-02-12,75.52
2005-02-13,87.22
2005-02-14,86.54